Home > Time Zones > World Clock > Weather > Fiji > Nadi > Past weeks

Flag for Fiji Weather past 2 weeks in Nadi, Fiji

Now
61 °F

Passing clouds.


Feels Like: 61 °F
Forecast: 69 / 81 °F
Wind: 5 mph from Southeast

Location: Nandi

Current Time: Aug 29, 2015 at 3:15:57 AM

Latest Report: Aug 29, 2015 at 2:00 AM


Visibility: 31 mi

Pressure: 30.04 "Hg

Humidity: 83%

Dew point: 55 °F

Location of NadiLocation

Historic Weather in Nadi — Graph

°F

Nadi temperature yesterday

Maximum temperature yesterday: 81 °F (at 1:00 PM)
Minimum temperature yesterday: 61 °F (at 5:00 AM)
Average temperature yesterday: 71 °F

Past Weeks' High & Low Weather Summary

 TemperatureHumidityPressure
High84 °F (Aug 25, 1:00 PM)100% (Aug 16, 5:00 PM)30.07 "Hg (Aug 16, 5:00 PM)
Low61 °F (Aug 27, 5:00 AM)42% (Aug 26, 2:00 PM)29.86 "Hg (Aug 16, 3:00 PM)
Average73 °F80%29.97 "Hg
* Reported Aug 14 2:00 AM — Aug 29 2:00 AM, Nadi, Weather by CustomWeather, © 2015

Note: Actual official high and low records may vary slightly from our data, if they occured in-between our weather recording intervals... More about our weather records

Advertising

Nadi weather history for previous 24 hours

 ConditionsComfort  
Time TempWeatherWind HumidityBarometerVisibility
2:00 AM
Sat, Aug 29
61 °FPassing clouds.5 mph83%30.04 "HgN/A
1:00 AM63 °FPassing clouds.6 mph77%30.04 "HgN/A
12:00 AM63 °FPassing clouds.6 mph83%30.07 "HgN/A
11:00 PM
Fri, Aug 28
66 °FPassing clouds.5 mph68%30.07 "HgN/A
10:00 PM66 °FPassing clouds.5 mph73%30.07 "HgN/A
9:00 PM66 °FPassing clouds.7 mph73%30.07 "HgN/A
8:00 PM68 °FPassing clouds.8 mph69%30.04 "HgN/A
7:00 PM70 °FPassing clouds.7 mph64%30.01 "HgN/A
6:00 PM73 °FPassing clouds.16 mph57%29.98 "HgN/A
5:00 PM77 °FPassing clouds.14 mph51%29.95 "HgN/A
4:00 PM81 °FPassing clouds.14 mph48%29.95 "HgN/A
3:00 PM81 °FPassing clouds.18 mph48%29.95 "HgN/A
2:00 PM81 °FPassing clouds.17 mph48%29.95 "HgN/A
1:00 PM81 °FPassing clouds.15 mph54%29.98 "HgN/A
12:00 PM79 °FScattered clouds.15 mph58%30.01 "HgN/A
11:00 AM77 °FScattered clouds.17 mph61%30.04 "HgN/A
10:00 AM77 °FPassing clouds.16 mph61%30.04 "HgN/A
9:00 AM73 °FPassing clouds.5 mph74%30.04 "HgN/A
8:00 AM70 °FPassing clouds.6 mph83%30.04 "HgN/A
7:00 AM64 °FPassing clouds.6 mph88%30.01 "HgN/A
6:00 AM63 °FPassing clouds.10 mph94%29.98 "HgN/A
5:00 AM61 °FPassing clouds.3 mph94%29.98 "HgN/A
4:00 AM63 °FPassing clouds.2 mph94%29.98 "HgN/A
3:00 AM63 °FPassing clouds.3 mph94%29.98 "HgN/A
Weather by CustomWeather, © 2015

See weather overviewHow to use our weather pages